Zurück zum Katalog

DELTA 1 DEB

AktivLEO
NORAD 10746·DEBRIS·🇺🇸 United States

Gestartet Jul 29, 1976 von Vandenberg Space Force Base

Loading…

Nächste Überflüge (nächste 24 Stunden)

TLE

AktuellSource: Space-Track

Epoche: Sep 14, 2026, 04:08 UTC

1 10746U 76077AT  26257.17248762  .00000781  00000-0  16488-2 0  9999
2 10746 101.8918 133.9044 0270512 114.6812  35.1390 13.22483776364885

Verfolge DELTA 1 DEB in Echtzeit mit AllMySat

Download on the App Store